Content
SEND FEEDBACK

Daily
Averages
Monthly
Summary
United States of America

ROCK HILL, NEW YORK


Home > North America > United States > New York
Elevation: 1260 feet     Latitude: 41 35N     Longitude: 074 37W

WEATHER
 
SELECT A DAY
Number of Records: 455,228;   Date Range: 1/1/95 - 12/26/14
 
SHARE

PRINT THIS DATA

[ ← Previous Day ]
WEATHER ALMANAC - APRIL 1, 2014
[ Next Day → ]
[ °C ]   °F
Weather ElementAverageHighLow
Temperature41.5 °F55.4 °F (3:15 pm)28.4 °F (5:15 am)
Barometer30.05 in30.12 in (8:55 am)29.96 in (6:15 pm)
Wind Speed4.8 mph10.4 mph (2:15 am)
Weather ElementAverage
Visibility10 mi
Wind DirectionSSE (167.6 °)

Weather ElementTotal
Precipitation---
Heating Degree Days23.1 (Base 65)
Averaged from 71 records on April 1, 2014
WEATHER CONDITIONS BREAKOUT
WIND DIRECTION BREAKOUT
WEATHER BY HOUR - APRIL 1, 2014
[ °C ]   °F
Local TimeTemperatureDewpointHumidityBarometerVisibilityWind DirectionWind SpeedGust SpeedPrecipitationEventsConditions
12:35 AM32.0 °F0.0 °F30.07 in10.0 miNW (320°)8.1 mphClear
12:55 AM33.8 °F0.0 °F30.07 in10.0 miNNW (340°)9.2 mphClear
1:15 AM33.8 °F0.0 °F30.08 in10.0 miCalmClear
1:35 AM32.0 °F0.0 °F30.08 in10.0 miNW (310°)8.1 mphClear
1:55 AM32.0 °F0.0 °F30.09 in10.0 miNW (310°)8.1 mphClear
2:15 AM32.0 °F0.0 °F30.08 in10.0 miNW (310°)10.4 mphClear
2:35 AM30.2 °F0.0 °F30.09 in10.0 miCalmClear
2:55 AM30.2 °F0.0 °F30.09 in10.0 miWest (270°)6.9 mphClear
3:15 AM30.2 °F0.0 °F30.09 in10.0 miNW (320°)6.9 mphClear
3:35 AM30.2 °F0.0 °F30.08 in10.0 miNorth (350°)5.8 mphClear
3:55 AM30.2 °F0.0 °F30.06 in10.0 miNNW (330°)6.9 mphClear
4:15 AM30.2 °F0.0 °F30.06 in10.0 miWNW (300°)5.8 mphClear
4:35 AM30.2 °F0.0 °F30.07 in10.0 miWNW (290°)6.9 mphClear
4:55 AM30.2 °F0.0 °F30.08 in10.0 miNW (310°)6.9 mphClear
5:15 AM28.4 °F0.0 °F30.08 in10.0 miWNW (300°)10.4 mphClear
5:35 AM28.4 °F0.0 °F30.08 in10.0 miNW (310°)9.2 mphClear
5:55 AM28.4 °F0.0 °F30.08 in10.0 miWNW (300°)5.8 mphClear
6:15 AM28.4 °F0.0 °F30.09 in10.0 miWNW (290°)5.8 mphClear
6:35 AM28.4 °F0.0 °F30.10 in10.0 miWNW (290°)5.8 mphClear
6:55 AM28.4 °F0.0 °F30.10 in10.0 miWNW (300°)5.8 mphClear
7:15 AM28.4 °F0.0 °F30.10 in10.0 miWest (280°)4.6 mphClear
7:35 AM28.4 °F0.0 °F30.11 in10.0 miWest (260°)4.6 mphClear
7:55 AM30.2 °F0.0 °F30.11 in10.0 miWest (270°)5.8 mphClear
8:15 AM32.0 °F0.0 °F30.10 in10.0 miNNW (330°)5.8 mphClear
8:35 AM33.8 °F0.0 °F30.11 in10.0 miWest (270°)3.5 mphClear
8:55 AM35.6 °F0.0 °F30.12 in10.0 miWest (270°)8.1 mphClear
9:15 AM35.6 °F0.0 °F30.12 in10.0 miWest (280°)5.8 mphClear
9:35 AM37.4 °F0.0 °F30.11 in10.0 miCalmClear
9:55 AM39.2 °F0.0 °F30.11 in10.0 miCalmClear
10:15 AM39.2 °F0.0 °F30.10 in10.0 miWest (280°)3.5 mphClear
10:35 AM42.8 °F0.0 °F30.11 in10.0 miNorthClear
10:55 AM44.6 °F0.0 °F30.10 in10.0 miWNW (300°)5.8 mphClear
11:15 AM44.6 °F0.0 °F30.10 in10.0 miWNW (290°)4.6 mphClear
11:35 AM46.4 °F0.0 °F30.09 in10.0 miCalmClear
11:55 AM48.2 °F0.0 °F30.08 in10.0 miSSE (150°)3.5 mphClear
12:15 PM48.2 °F0.0 °F30.07 in10.0 miCalmClear
12:35 PM50.0 °F0.0 °F30.06 in10.0 miNNE (30°)3.5 mphClear
12:55 PM51.8 °F0.0 °F30.06 in10.0 miCalmClear
1:15 PM53.6 °F0.0 °F30.06 in10.0 miWest (280°)6.9 mphClear
1:35 PM53.6 °F0.0 °F30.05 in10.0 miCalmClear
1:55 PM53.6 °F0.0 °F30.04 in10.0 miWest (260°)4.6 mphClear
2:15 PM53.6 °F0.0 °F30.03 in10.0 miCalmClear
2:35 PM53.6 °F0.0 °F30.02 in10.0 miCalmClear
2:55 PM53.6 °F0.0 °F30.02 in10.0 miWest (260°)4.6 mphClear
3:15 PM55.4 °F0.0 °F30.01 in10.0 miCalmClear
3:35 PM55.4 °F0.0 °F30.00 in10.0 miSSE (160°)5.8 mphClear
3:55 PM55.4 °F0.0 °F29.99 in10.0 miCalmClear
4:15 PM55.4 °F0.0 °F29.99 in10.0 miCalmClear
4:35 PM55.4 °F0.0 °F29.98 in10.0 miSouth (170°)5.8 mphClear
4:55 PM55.4 °F0.0 °F29.97 in10.0 miSE (140°)3.5 mphClear
5:15 PM53.6 °F0.0 °F29.98 in10.0 miCalmClear
5:35 PM53.6 °F0.0 °F29.98 in10.0 miSSE (160°)3.5 mphClear
5:55 PM53.6 °F0.0 °F29.97 in10.0 miSE (130°)4.6 mphClear
6:15 PM53.6 °F0.0 °F29.96 in10.0 miESE (110°)4.6 mphClear
6:35 PM53.6 °F0.0 °F29.96 in10.0 miESE (120°)8.1 mphClear
6:55 PM51.8 °F0.0 °F29.97 in10.0 miSE (140°)10.4 mphClear
7:15 PM48.2 °F0.0 °F29.99 in10.0 miSE (130°)8.1 mphClear
7:35 PM44.6 °F0.0 °F30.00 in10.0 miSE (140°)9.2 mphClear
7:55 PM46.4 °F0.0 °F30.01 in10.0 miSSE (150°)5.8 mphClear
8:15 PM46.4 °F0.0 °F30.02 in10.0 miESE (120°)5.8 mphClear
8:35 PM46.4 °F0.0 °F30.02 in10.0 miESE (110°)5.8 mphClear
8:55 PM44.6 °F0.0 °F30.03 in10.0 miESE (110°)4.6 mphClear
9:15 PM42.8 °F0.0 °F30.02 in10.0 miEast (80°)5.8 mphClear
9:35 PM42.8 °F0.0 °F30.02 in10.0 miEast (90°)6.9 mphClear
9:55 PM42.8 °F0.0 °F30.02 in10.0 miEast (90°)5.8 mphClear
10:15 PM42.8 °F0.0 °F30.02 in10.0 miEast (90°)4.6 mphClear
10:35 PM42.8 °F0.0 °F30.03 in10.0 miCalmClear
10:55 PM42.8 °F0.0 °F30.03 in10.0 miEast (90°)3.5 mphClear
11:15 PM39.2 °F0.0 °F30.02 in10.0 miENE (70°)5.8 mphClear
11:35 PM37.4 °F0.0 °F30.02 in10.0 miENE (70°)6.9 mphClear
11:55 PM37.4 °F0.0 °F30.02 in10.0 miENE (70°)4.6 mphClear
Hourly data recorded from KMSV, located miles away from Rock Hill, New York







STORIES FROM OUR PARTNERS